Starlink 33848

operational
NORAD ID: 63705 Int'l Des: 2025-087 Owner: SPXS Country: US Constellation: starlink
LEOCIRCULAR

About Starlink 33848

Description loading...

Live Position

Loading 3D Globe...

Upcoming Passes

Altitude History

Altitude vs Time

uPlot chart will show altitude changes over time

Two-Line Element Set

1 63705U 25087J 25353.69110237 .00013408 00000-0 46400-3 0 9993
2 63705 53.1564 230.9865 0001691 43.0474 317.0659 15.30199880 36946
Epoch: Dec 19, 2025 • Age: 10 hours

Current Status

Altitude 480.6 km
Velocity 7.63 km/s
Sub-Earth Point 52.31°N, 179.68°E
Launch Date Apr 28, 2025
Age 0.6 years
Type internet

Technical Details

Classification Payload
Mass 575.00 kg
Dry Mass 530.00 kg
Total Mass 575.00 kg
Length 0.30 m
Diameter 4.10 m
Span 29.00 m
Shape Box + pan
Manufacturer SPXS
Bus Type Starlink V2MO
Phase Status In Orbit
Owner/State SPXS/US

Large Constellations

Loading constellations...